Terminal Aerodrome Forecast
Issued by NWS Denver/Boulder, CO

Home | Current Version | Previous Version | Text Only | Print | Product List | Glossary On
Versions: 1 2 3 4 5 6 7 8 9 10 11 12 13 14 15 16 17 18 19 20 21 22 23 24 25 26 27 28 29 30 31 32 33 34 35 36 37 38 39 40 41 42
000
FTUS45 KBOU 220524
TAFDEN
TAF
KDEN 220524Z 2206/2312 25008KT P6SM VCSH BKN045 OVC060
     FM220800 24008KT P6SM SCT070 SCT090 BKN120
     FM221300 30011KT P6SM FEW120 SCT220
     FM222000 35013G22KT P6SM VCSH SCT070 BKN100
     FM230000 02018G34KT P6SM VCTS BKN035CB BKN050
      TEMPO 2300/2304 3SM -RA BR SCT020 OVC035
     FM230400 33010KT P6SM SCT040 BKN080=

USA.gov is the U.S. government's official web portal to all federal, state and local government web resources and services.